Regional Weather Roundup
Issued by NWS Little Rock, AR

Home | Current Version | Previous Version | Text Only | Print | Product List | Glossary Off
Versions: 1 2 3 4 5 6 7 8 9 10 11 12 13 14 15 16 17 18 19 20 21 22 23 24 25 26 27 28 29 30 31 32

000
ASUS44 KLZK 220905
RWRLZK

WEATHER ROUNDUP FOR ARKANSAS
NATIONAL WEATHER SERVICE LITTLE ROCK AR
300 AM CST THU FEB 22 2018

NOTE: "FAIR" INDICATES FEW OR NO CLOUDS BELOW 12,000 FEET WITH NO
SIGNIFICANT WEATHER AND/OR OBSTRUCTIONS TO VISIBILITY.

ARZ001-003-010-029-221000-
NORTHWEST ARKANSAS

CITY           SKY/WX    TMP DP  RH WIND       PRES   REMARKS
FAYETTEVILLE   CLOUDY    33  33 100 NE5       30.30S WCI  29
FORT SMITH     CLOUDY    39  39 100 W3        30.30F FOG
HARRISON       CLOUDY    31  31 100 NW5       30.31S FOG     WCI  26
BENTONVILLE    CLOUDY    31  30  96 NE6       30.33S FOG     WCI  25
SILOAM SPGS    CLOUDY    32  32 100 E7        30.30F FOG     WCI  26
HIGHFILL       CLOUDY    32  32 100 NE7       30.31S FOG     WCI  26
$$

ARZ004-005-016-221000-
NORTH CENTRAL ARKANSAS

CITY           SKY/WX    TMP DP  RH WIND       PRES   REMARKS
BATESVILLE     CLOUDY    36  35  96 NW7       30.32S
FLIPPIN        MIX PCPN  34  33  96 N3        30.34F FOG
MTN HOME       CLOUDY    32  32 100 CALM      30.31R FOG
$$

ARZ040-041-221000-
WEST CENTRAL ARKANSAS

CITY           SKY/WX    TMP DP  RH WIND       PRES   REMARKS
MENA           CLOUDY   N/A N/A N/A CALM      30.26S
MOUNT IDA      CLOUDY    43  43 100 CALM      30.24F FOG
$$

ARZ009-017-025-026-028-221000-
NORTHEAST ARKANSAS

CITY           SKY/WX    TMP DP  RH WIND       PRES   REMARKS
JONESBORO      CLOUDY    39  39 100 N7        30.28R
NEWPORT          N/A     37  36  96 N15       30.30F
WALNUT RIDGE   CLOUDY    37  36  96 NW12      30.30R
BLYTHEVILLE    LGT RAIN  42 N/A N/A E25       30.14F
$$

ARZ022-023-033-042-044-221000-
CENTRAL ARKANSAS

CITY           SKY/WX    TMP DP  RH WIND       PRES   REMARKS
LITTLE ROCK    CLOUDY    38  37  97 N10       30.32R
N LITTLE ROCK    N/A     36  35  99 N7        30.30R
JACKSONVILLE   CLOUDY    38  38  99 NW7       30.31R
SEARCY         CLOUDY    37  37 100 N10       30.30R
HOT SPRINGS    CLOUDY    42  41  96 NE3       30.29R
RUSSELLVILLE   CLOUDY    40  39  97 NE3       30.30F FOG
CLINTON        CLOUDY    37  36  93 VRB5      30.33R FOG
$$

ARZ036-221000-
EAST ARKANSAS

CITY           SKY/WX    TMP DP  RH WIND       PRES   REMARKS
WEST MEMPHIS   LGT RAIN  41 N/A N/A E12       30.17F
$$

ARZ050-053-066-070-073-221000-
SOUTHWEST ARKANSAS

CITY           SKY/WX    TMP DP  RH WIND       PRES   REMARKS
ARKADELPHIA    CLOUDY    43  41  93 N8        30.29R
CAMDEN         CLOUDY    45  43  93 CALM      30.26R
TEXARKANA      CLOUDY    46  46 100 NE7       30.24F FOG
EL DORADO      CLOUDY    46  46 100 NW3       30.23S
DE QUEEN       CLOUDY    48  47  96 E6        30.24F
$$

ARZ056-057-069-221000-
SOUTHEAST ARKANSAS

CITY           SKY/WX    TMP DP  RH WIND       PRES   REMARKS
PINE BLUFF     CLOUDY    41 N/A N/A NW6       30.27R
STUTTGART      CLOUDY    40  38  93 NW12      30.28R
MONTICELLO     CLOUDY    43  41  93 E6        30.21F

$$






USA.gov is the U.S. government's official web portal to all federal, state and local government web resources and services.